Regional Weather Roundup
Issued by NWS Goodland, KS

Home | Current Version | Previous Version | Graphics & Text | Print | Product List | Glossary On
Versions: 1 2 3 4 5 6 7 8 9 10 11 12 13 14 15 16 17 18 19 20 21 22 23 24 25 26 27 28 29 30 31 32 33 34 35 36 37 38 39 40 41 42 43 44 45 46 47 48 49 50
000
ASUS43 KGLD 261459
RWRGLD

GOODLAND FORECAST AREA HOURLY WEATHER ROUNDUP
NATIONAL WEATHER SERVICE GOODLAND KS
900 AM MDT TUE JUL 26 2016

...OFFICIAL OBSERVATIONS...

CITY           SKY/WX    TMP DP  RH WIND       PRES   REMARKS
GOODLAND KS    CLOUDY    72  66  81 S16       30.13F
HILL CITY KS   PTSUNNY   75  69  81 S7        30.12S
IMPERIAL NEB   PTSUNNY   74  66  76 S16       30.11F
MCCOOK NEB     CLOUDY    73  66  78 S8        30.11F
AKRON CO       SUNNY     73  61  65 S14       30.14S
BURLINGTON CO  SUNNY     75  65  70 S18       30.16S
LIMON CO       NOT AVBL
$$

...UNOFFICIAL OBSERVATIONS...

CITY           SKY/WX    TMP DP  RH WIND       PRES   REMARKS
COLBY KS       CLOUDY    73  70  88 S12       30.15S
GOVE KS          N/A     70  32  24 MISG        N/A
LENORA KS        N/A     71  32  23 MISG        N/A
NORTON KS      MOSUNNY   75  63  64 S10       30.11S
SHARON SPRINGS   N/A     70  67  90 S12         N/A
KIT CARSON CO    N/A     73  64  73 MISG        N/A
YUMA CO          N/A     70  65  85 S14         N/A
$$




USA.gov is the U.S. government's official web portal to all federal, state and local government web resources and services.